EHI
0 0 0 0 0 0 0 0 0 0 0 0 0 0 0 0 0 0 0 0 0 0 0 0 0 0 0 0 0 0 0 0 0 0 0 0 0 0
0 0 0 0 0 0 0 0 0 0 0 0 0 0 0 0 0 0 0 0 0 0 0 0 0 0 0 0 0 0 0 0 0 0 0 0 0 0
0 0 0 0 0 0 0 0 0 0 0 0 0 0 0 0 0 0 0 0 0 0 0 0 0 0 0 0 0 0 0 0 0 0 0 0 0 0
0 0 0 0 0 0 0 0 0 0 0 0 0 0 0 0 0 0 0 0 0 0 0 0 0 0 0 0 0 0 0 0 0 0 0 0 0 0
0 0 0 0 0 0 0 0 0 0 0 0 0 0 0 0 0 0 0 0 0 0 0 0 0 0 0 0 0 0 0 0 0 0 0 0 0 0
0 0 0 0 0 0 0 0 0 0 0 0 0 0 0 0 0 0 0 0 0 0 0 0 0 0 0 0 0 0 0 0 0 0 0 0 0 0
0 0 0 0 0 0 0 0 0 0 0 0 0 0 0 0 0 0 0 0 0 0 0 0 0 0 0 0 0 0 0 0 0 0 0 0 0 0
0 0 0 0 0 0 0 0 0 0 0 0 0 0 0 0 0 0 0 0 0 0 0 0 0 0 0 0 0 0 0 0 0 0 0 0 0 0
0 0 0 0 0 0 0 0 0 0 0 0 0 0 0 0 0 0 0 0 0 0 0 0 0 0 0 0 0 0 0 0 0 0 0 0 0 0
0 0 0 0 0 0 0 0 0 0 0 0 0 0 0 0 0 0 0 0 0 0 0 0 0 0 0 0 0 0 0 0 0 0 0 0 0 0
0 0 0 0 0 0 0 0 0 0 0 0 0 0 0 0 0 0 0 0 0 0 0 0 0 0 0 0 0 0 0 0 0 0 0 0 0 0
0 0 0 0 0 0 0 0 0 0 0 0 0 0 0 0 0 0 0 0 0 0 0 0 0 0 0 0 0 0 0 0 0 0 0 0 0 0
0 0 0 0 0 0 0 0 0 0 0 0 0 0 0 0 0 0 0 0 0 0 0 0 0 0 0 0 0 0 0 0 0 0 0 0 0 0
0 0 0 0 0 0 0 0 0 0 0 0 0 0 0 0 0 0 0 0 0 0 0 0 0 0 0 0 0 0 0 0 0 0 0 0 0 0
0 0 0 0 0 0 0 0 0 0 0 0 0 0 0 0 0 0 0 0 0 0 0 0 0 0 0 0 0 0 0 0 0 0 0 0 0 0
0 0 0 0 0 0 0 0 0 0 0 0 0 0 0 0 0 0 0 0 0 0 0 0 0 0 0 0 0 0 0 0 0 0 0 0 0 0
0 0 0 0 0 0 0 0 0 0 0 0 0 0 0 0 0 0 0 0 0 0 0 0 0 0 0 0 0 0 0 0 0 0 0 0 0 0
0 0 0 0 0 0 0 0 0 0 0 0 0 0 0 0 0 0 0 0 0 0 0 0 0 0 0 0 0 0 0 0 0 0 0 0 0 0
0 0 0 0 0 0 0 0 0 0 0 0 0 0 0 0 0 0 0 0 0 0 0 0 0 0 0 0 0 0 0 0 0 0 0 0 0 0
0 0 0 0 0 0 0 0 0 0 0 0 0 0 0 0 0 0 0 0 0 0 0 0 0 0 0 0 0 0 0 0 0 0 0 0 0 0
0 0 0 0 0 0 0 0 0 0 0 0 0 0 0 0 0 0 0 0 0 0 0 0 0 0 0 0 0 0 0 0 0 0 0 0 0 0
0 0 0 0 0 0 0 0 0 0 0 0 0 0 0 0 0 0 0 0 0 0 0 0 0 0 0 0 0 0 0 0 0 0 0 0 0 0
0 0 0 0 0 0 0 0 0 0 0 0 0 0 0 0 0 0 0 0 0 0 0 0 0 0 0 0 0 0 0 0 0 0 0 0 0 0
Wind_Speed
1 1 1 1 1 1 1 1 2 3 4 3 3 3 4 4 8 6 6 13 15 15 15 15 14 14 13 13 12 12 12 12 11 10 9 9 10 12
1 1 2 1 1 1 1 1 1 2 4 3 3 4 5 6 9 6 6 14 13 15 15 15 14 13 13 13 13 13 12 12 12 11 11 11 11 11
2 2 3 2 1 1 1 1 1 2 4 4 3 3 4 5 6 5 5 5 6 14 15 15 14 13 13 13 13 13 13 13 12 12 12 11 11 11
3 2 3 2 2 2 1 2 2 2 3 5 4 3 4 5 6 6 6 6 5 11 14 14 14 13 14 14 13 13 13 13 13 13 12 12 11 12
4 3 3 2 3 2 2 2 2 3 3 4 5 3 3 4 5 5 6 5 6 8 11 12 13 14 14 14 13 13 13 13 13 13 13 12 11 11
4 4 4 4 4 4 3 3 3 3 3 4 4 4 3 3 3 4 6 4 6 6 7 9 12 14 14 14 13 13 13 13 14 14 13 13 12 12
4 4 5 6 7 5 4 3 3 3 3 4 4 4 4 3 3 3 6 6 5 3 4 6 6 5 7 10 11 12 13 13 13 13 14 14 13 12
5 5 5 6 7 9 9 7 5 4 4 3 4 5 5 4 4 4 4 5 5 3 5 7 4 5 5 5 11 14 14 14 13 14 14 14 14 13
5 5 4 5 6 4 6 7 7 8 7 4 5 5 5 4 4 5 5 5 6 5 5 6 4 5 5 7 14 14 14 13 13 14 15 16 15 14
5 5 5 5 5 5 4 4 4 5 6 4 4 5 5 4 4 5 5 5 5 4 3 5 4 5 7 6 11 12 12 14 15 16 17 16 16 15
5 5 5 6 9 10 5 5 5 5 7 8 8 8 9 9 6 3 3 4 6 4 2 3 4 6 6 5 6 11 13 15 17 17 17 17 16 15
4 5 9 9 10 10 6 5 6 5 4 4 5 6 5 6 7 3 2 3 4 4 2 2 3 5 6 4 3 5 7 12 16 17 17 17 16 9
4 4 5 10 11 11 9 5 8 6 3 3 3 3 3 2 3 2 2 3 4 5 3 3 3 3 5 7 5 4 5 6 7 10 13 16 15 11
5 4 5 10 10 10 8 8 10 7 2 2 3 3 3 3 3 3 4 4 5 7 6 4 4 5 6 8 8 5 5 5 6 7 6 11 12 14
5 8 9 10 9 7 9 10 7 3 2 3 4 4 3 3 3 3 4 4 5 6 6 5 5 6 6 8 9 8 8 6 5 5 6 6 7 6
5 7 10 10 7 7 6 5 3 3 3 3 3 3 2 2 3 3 3 4 4 5 4 5 6 6 7 8 9 10 8 7 6 7 8 7 6 6
3 2 2 3 3 3 3 3 3 3 3 3 3 3 3 3 3 3 3 4 4 6 6 4 4 5 8 8 8 9 8 8 7 7 7 8 7 6
6 4 4 5 5 5 4 4 4 4 3 3 3 3 3 3 4 3 4 4 5 6 6 5 5 5 5 5 9 9 7 7 7 7 6 8 9 7
6 4 5 5 5 4 4 4 4 4 3 3 3 3 3 3 4 4 4 4 5 6 6 5 4 4 7 8 6 6 6 7 8 8 7 7 9 9
5 5 5 5 4 4 4 4 4 3 3 3 3 3 3 3 4 4 4 5 6 6 6 5 4 4 6 7 8 8 10 9 8 9 8 8 8 12
5 5 5 4 4 4 4 4 4 4 4 3 4 4 4 4 4 4 5 8 8 6 7 7 6 10 6 5 7 8 7 10 12 9 9 8 9 7
5 5 5 5 4 4 4 4 4 4 4 4 4 4 4 4 5 6 5 6 6 6 7 7 7 6 4 6 9 10 10 10 11 15 15 13 7 7
5 5 5 5 4 4 4 4 5 4 4 4 4 4 4 4 5 5 6 6 6 7 7 7 6 5 5 6 8 9 11 11 8 8 8 11 14 16
Wind_Direction
258 264 262 275 290 289 273 253 264 291 294 302 319 341 346 341 340 342 334 334 342 344 343 340 338 336 334 334 332 328 326 321 313 306 293 287 278 268
252 257 265 263 271 280 280 277 254 251 274 288 291 317 333 336 337 335 327 337 340 342 343 343 340 342 343 342 339 334 328 321 313 307 297 290 285 282
259 251 260 262 261 272 278 277 269 253 269 285 285 310 315 322 323 322 320 323 325 335 337 340 338 339 341 340 339 336 331 327 321 311 303 293 289 286
248 247 259 262 264 262 263 266 264 263 264 283 295 300 302 310 313 318 325 328 318 326 333 336 336 337 337 337 337 335 334 331 328 320 311 301 294 289
238 238 247 247 258 256 256 258 262 271 262 273 287 291 290 302 312 312 315 314 317 321 328 333 335 334 334 334 334 334 335 332 328 321 315 307 299 294
237 235 239 235 240 244 250 252 252 262 268 271 281 290 288 292 305 313 320 322 317 317 327 331 329 330 331 330 330 331 332 330 328 324 320 315 306 298
245 243 242 243 244 244 248 246 244 250 263 270 280 291 296 307 309 308 313 317 309 307 325 319 317 315 321 324 324 325 328 327 326 325 323 318 311 302
245 248 249 254 257 262 264 263 255 251 254 257 270 279 287 292 297 304 310 321 316 319 325 310 307 307 310 305 315 322 326 326 325 326 326 322 314 306
236 239 247 248 252 247 262 271 276 275 270 260 259 265 277 283 292 298 298 296 289 300 312 297 303 302 305 311 317 320 324 327 328 328 326 323 318 313
232 232 239 248 246 239 234 246 254 264 272 269 251 257 262 267 267 281 288 292 284 283 290 289 303 301 307 305 312 323 330 330 328 325 323 320 316 312
233 234 236 241 252 253 244 242 253 260 271 275 279 283 291 296 295 294 299 306 304 301 300 289 305 308 299 290 305 323 326 325 324 322 320 318 315 312
237 240 247 248 252 255 242 236 252 257 255 273 283 292 295 298 302 290 275 285 292 296 305 317 306 325 312 290 294 310 314 315 319 318 317 315 316 311
238 237 241 256 258 258 254 237 249 256 240 249 262 274 282 283 287 277 257 253 264 268 285 314 296 296 283 297 297 288 292 300 307 307 310 311 312 310
237 234 239 253 257 260 260 257 262 267 239 242 259 267 271 275 278 276 273 265 257 262 269 268 268 278 287 291 292 296 296 291 293 295 298 306 307 306
233 238 244 250 255 260 262 263 264 251 230 245 256 260 256 260 271 282 286 281 276 268 266 255 256 267 269 278 287 293 302 298 286 291 300 298 294 295
242 242 248 252 251 251 257 260 245 230 231 242 254 259 264 270 274 281 289 297 293 290 273 262 261 264 272 274 278 284 285 286 297 298 296 290 284 279
227 218 218 228 232 234 237 236 229 235 244 236 244 258 268 275 280 285 282 289 284 291 299 294 274 264 261 268 275 274 279 280 281 290 296 296 288 279
231 222 226 229 233 234 235 235 230 232 234 235 237 246 259 267 279 283 279 279 283 287 289 295 303 306 298 273 246 264 274 279 286 288 286 290 292 287
231 226 227 229 230 231 233 233 234 232 228 231 234 237 247 259 269 276 278 279 280 283 285 288 291 293 299 300 284 246 269 287 290 289 283 278 283 288
223 227 230 230 228 229 232 234 235 232 228 232 236 237 240 251 262 268 270 273 279 284 287 283 272 266 269 282 287 284 277 275 280 285 286 283 278 281
226 228 229 228 227 229 231 230 229 231 230 231 236 237 239 247 257 262 267 276 281 280 282 283 274 282 278 275 278 281 280 274 274 275 283 288 291 289
228 228 229 226 223 225 228 227 228 230 229 231 236 239 240 244 254 260 263 270 274 274 277 281 284 285 270 269 278 286 292 293 289 285 277 267 271 277
227 226 227 225 221 220 222 223 227 231 229 230 235 238 239 248 253 257 262 267 273 277 282 287 288 278 270 269 277 284 288 294 297 297 289 283 277 271